STARLINK-5587, 57245

Orbit data source: Space-Track

STARLINK-5587, 57245 is a payload satellite owned by SpaceX/Seattle (US) in LEO that was launched on Fri, 07 Jul 2023 UTC via an FALCON 9 launch vehicle from the Air Force Western Test Range (AFWTR). Payload-class satellites include a variety of spacecraft equipped with specific instruments for various scientific and technological missions. These include communications satellites like Starlink; space stations such as the ISS; scientific satellites like the Hubble; Earth observation satellites from companies like Planet Labs, Umbra, and HawkEye 360; GPS; miniature CubeSats for education and research; and military/defense satellites.

Loading next visibility...
Identifier
57245, 2023-094AD
Orbit
LEO
Country
Flag of USUS
Related business
Manufacturer
SpaceX/Seattle
Mission
Operational Commercial Communications
Bus & Motor
STARLINK, Unknown motor
Mass
305 kg wet, ~290 kg dry
Launch date (UTC)
2023-07-07 (3 years ago)
Launch vehicle
FALCON 9
Launch site
Air Force Western Test Range (AFWTR)
Object type
Payload
Rocket body
Debris
Shape & HBR
Box + 1 Pan, 10.1 m
Radar Cross Section
11.087 m², Large (>1 m²)

Expand to show TLE details & history
Last TLE update: 9 hours ago

TLE from 9 hours ago
0 STARLINK-5587
1 57245U 23094AD  26167.73175160  .00000554  00000-0  29673-4 0  9998
2 57245  43.0010 180.8510 0001139 273.5754  86.4967 15.27573632162384
Epoch: 2026-06-16T17:33Z
TLE epoch observation values (Epoch: 2026-06-16T17:33:43.338Z)
Latitude
-0.00003°
Longitude
12.42082°
Altitude
482.796 km
Speed
7.626 km/s
True Right ascension
12h 03m 24s
True Declination
0° 00' 00"
Sunlit
Object was in daylight at epoch
Visualization orbit readout
Latitude
Unknown
Longitude
Unknown
Altitude
Unknown
Speed
Unknown
Apparent Right ascension
Unknown
Apparent Declination
Unknown
Sunlit
N/A
Visualization observer readout
Local Sidereal Time
13:24:01
Azimuth
Unknown
Elevation
Unknown
Doppler factor
Unknown
Orbital elements
Apogee altitude
485.795 km
Perigee altitude
484.231 km
Semi-major axis
6,863.15 km
Eccentricity
0.00011
Inclination
43.001°
RAAN
180.851°
Arg. of periapsis
273.5754°
True anomaly
86.50973°
Mean anomaly
86.4967°
Eccentric anomaly
86.50321°
Mean motion
3.81731 °/min
Orbital period
94.31 mins
BSTAR
0.000029673
Loading maneuver chart data...
Computing Atmospheric mass density...
Loading historical data...
Loading historical data...
Loading historical data...
Loading historical data...
Loading historical data...
Loading historical data...
Loading historical data...

Documentation

Showing up to 5 results
|